Temperature
18 18 18 18 18 18 18 18 18 18 18 17 17 17 16 16 16 15 15 15 14 14 14 14 14 13 13 13 13 13 13 14 14 14 14 14 14 14 15 15 15 15 15
18 18 18 18 18 18 18 18 18 18 18 17 17 17 16 16 16 15 15 14 14 14 14 13 13 13 13 13 13 13 13 13 13 14 14 14 14 14 14 14 15 15 15
18 18 17 18 18 18 18 18 18 18 18 17 17 17 16 16 15 15 15 14 14 14 13 13 13 13 13 13 13 13 13 13 13 13 13 14 14 14 14 14 14 14 14
18 18 18 17 18 18 18 17 17 17 17 17 17 17 17 16 16 15 15 14 14 14 13 13 13 13 13 13 13 13 13 13 12 13 13 13 13 13 13 13 14 14 14
18 18 18 18 18 18 18 18 17 17 17 17 17 17 16 16 16 15 15 15 14 14 13 13 13 12 12 12 12 12 12 12 12 12 12 12 12 12 12 13 13 13 13
18 18 19 18 18 18 18 18 17 18 18 18 17 17 17 16 16 15 15 15 14 14 13 13 13 12 12 12 12 12 12 12 12 12 12 12 12 12 12 12 12 13 13
19 19 19 19 19 18 18 18 18 18 18 18 17 17 17 16 16 15 15 15 14 14 14 13 13 13 12 12 12 12 12 12 11 11 11 11 11 11 11 11 11 11 12
20 20 20 19 19 19 19 19 18 18 18 18 18 17 17 16 16 16 15 15 15 14 14 13 13 13 13 12 12 12 12 12 11 11 11 11 11 11 11 10 10 11 11
20 20 20 20 20 20 19 19 19 19 19 18 18 17 17 16 16 16 15 15 15 14 14 14 13 13 13 13 12 12 12 12 11 11 11 11 11 11 10 10 10 10 10
21 21 21 21 21 20 20 20 20 19 19 19 18 18 17 17 16 16 16 15 15 15 14 14 14 13 13 13 13 12 12 12 12 11 11 11 11 11 10 10 10 10 10
22 22 22 21 21 21 21 20 20 20 19 19 19 18 17 17 16 16 16 15 15 15 15 14 14 14 13 13 13 13 12 12 12 11 11 11 11 11 10 10 10 10 10
23 23 22 22 22 21 21 21 20 20 20 19 19 18 18 17 17 17 16 16 16 16 15 15 14 14 14 13 13 13 13 12 12 12 11 11 11 11 11 10 10 10 10
23 23 23 23 22 22 22 21 21 21 20 20 19 19 18 18 18 17 17 17 16 16 16 15 15 15 14 14 13 13 13 13 12 12 12 11 11 11 11 10 10 10 10
23 23 23 23 23 23 22 22 22 21 21 20 20 19 19 19 18 18 17 17 17 16 16 16 15 15 15 14 14 13 13 13 13 12 12 12 11 11 11 10 10 10 10
23 23 23 23 23 23 22 22 22 21 21 20 20 20 19 19 18 18 18 17 17 17 16 16 16 15 15 15 14 14 13 13 13 12 12 12 11 11 11 11 10 10 10
22 22 23 23 23 23 23 22 22 22 21 21 20 20 20 19 19 18 18 18 17 17 17 16 16 16 16 15 15 14 14 13 13 13 12 12 12 11 11 11 10 10 10
21 22 22 22 23 23 23 22 22 22 21 21 20 20 20 19 19 18 18 18 17 17 17 16 16 16 16 15 15 14 14 14 13 13 13 12 12 11 11 11 11 10 10
20 21 21 22 22 22 22 22 22 21 21 20 20 20 19 19 19 18 18 18 17 17 17 16 16 16 16 15 15 14 14 14 14 13 13 12 12 12 11 11 11 11 10
19 19 20 20 21 21 21 21 21 20 20 19 19 19 19 18 18 18 18 18 17 17 17 16 16 16 16 15 15 14 13 13 14 13 13 12 12 12 11 11 11 11 11
18 18 19 19 20 19 19 20 19 19 18 18 18 18 17 17 17 17 17 17 16 16 16 16 16 15 15 15 14 14 13 13 13 13 13 13 12 12 11 11 11 11 11
17 18 18 18 18 17 18 18 17 17 16 16 16 16 16 16 16 16 16 15 15 15 15 15 15 15 14 14 14 13 13 13 13 13 13 13 13 12 12 11 11 11 10
17 17 17 16 16 16 16 16 15 15 15 15 15 15 15 14 14 14 14 14 14 14 13 13 14 14 14 13 13 13 13 13 12 12 13 13 12 12 12 11 11 11 10
15 15 15 15 15 14 14 14 13 13 13 13 13 13 13 13 13 13 13 13 13 12 12 12 12 12 12 12 12 12 12 12 12 12 12 12 12 12 11 11 11 10 10
14 14 14 14 13 13 13 12 12 12 12 12 12 12 12 12 12 12 11 11 11 11 11 11 11 11 11 11 11 11 11 11 11 11 11 11 11 11 11 11 11 10 10
13 13 13 13 12 12 12 12 11 11 11 11 11 11 11 11 10 10 10 10 10 10 10 10 10 10 10 10 10 10 10 10 11 10 11 11 11 11 11 11 11 10 10
13 12 12 12 11 11 11 11 11 11 10 10 10 10 10 10 10 10 10 10 9 9 9 9 9 9 9 9 9 10 10 10 10 10 10 10 10 11 11 11 10 10 10
Wind_Speed
6 7 9 9 8 7 7 7 8 7 7 5 5 4 3 2 2 2 4 5 6 6 6 5 4 4 4 3 3 2 4 5 3 2 3 3 4 5 6 5 6 7 7
5 6 8 9 9 8 7 7 8 8 7 5 4 3 4 3 2 2 3 4 5 6 5 5 3 3 3 4 4 3 2 3 4 2 2 3 4 4 5 5 6 7 7
9 9 10 10 10 10 10 9 8 8 7 6 5 5 4 3 2 1 2 3 5 5 5 6 4 3 3 3 3 3 3 2 3 3 2 2 0 2 3 4 6 6 6
8 9 10 10 11 10 9 8 8 8 7 7 7 7 5 4 5 3 3 3 4 5 6 6 5 4 2 3 2 2 2 2 2 2 3 2 1 1 2 3 4 5 6
9 10 10 11 11 10 10 8 8 7 7 7 8 7 5 4 3 2 3 3 2 4 5 7 6 4 3 3 2 2 2 2 2 1 1 2 2 2 1 2 4 4 4
9 9 8 8 8 8 8 8 8 7 7 8 7 8 8 7 5 4 4 3 2 2 4 6 6 5 4 3 3 2 2 2 2 1 1 1 1 1 1 1 2 3 3
9 9 9 10 10 10 10 9 9 9 8 8 8 8 9 9 8 6 6 5 3 3 4 5 5 4 5 5 4 3 2 3 2 2 2 2 2 2 2 1 1 2 2
9 10 11 11 11 12 11 11 11 10 9 9 9 8 8 7 6 6 6 6 5 5 4 5 6 6 6 5 4 3 3 3 3 3 3 2 2 3 3 2 2 1 2
11 11 11 11 12 12 13 13 12 11 10 10 9 8 9 8 8 7 6 5 5 4 5 5 5 6 6 5 4 3 4 3 4 4 4 3 3 3 4 3 3 2 2
10 11 11 12 12 12 11 10 11 11 10 10 10 9 9 9 8 7 7 7 6 5 6 6 6 6 5 5 5 4 4 4 4 3 4 4 3 3 4 4 4 4 4
12 12 11 11 10 9 9 10 10 10 9 10 10 10 9 9 8 8 8 8 7 7 7 7 7 7 6 6 5 6 5 6 5 5 5 6 5 4 4 4 4 5 5
10 10 10 9 9 10 10 11 11 11 11 11 10 11 9 9 9 9 9 8 8 8 8 7 7 7 7 7 7 7 7 7 7 7 6 7 6 6 5 5 6 6 7
9 8 8 9 10 11 11 11 12 13 11 10 11 10 10 10 11 11 10 9 9 9 8 8 9 9 8 8 8 8 8 8 8 8 8 9 7 8 6 7 7 6 6
8 8 9 9 10 10 11 11 12 12 11 11 11 12 13 13 12 11 10 10 10 10 10 10 10 10 9 9 9 9 9 9 9 9 9 9 9 10 9 8 8 7 7
5 7 8 8 8 8 9 10 10 9 10 11 12 13 12 10 10 10 10 10 10 11 10 10 10 10 9 9 10 10 10 10 10 10 10 10 12 13 11 8 8 8 7
2 3 4 5 7 9 9 9 9 9 9 11 13 11 9 9 10 10 10 10 10 10 10 11 11 11 10 13 15 12 10 10 11 11 11 10 12 14 15 15 14 12 10
3 2 2 3 4 5 6 8 8 7 8 10 9 8 9 10 11 11 10 11 11 10 11 11 11 13 14 16 16 16 12 11 11 12 11 10 11 12 11 12 14 14 16
7 6 5 3 3 2 0 2 3 4 6 6 6 6 7 9 8 8 10 11 9 9 11 12 12 12 14 16 17 17 14 12 13 13 13 13 13 12 12 12 12 12 12
7 7 6 5 6 6 3 4 4 3 2 3 4 5 6 7 7 9 11 9 8 10 10 9 12 13 14 16 18 16 10 11 14 14 14 14 14 15 15 13 13 13 12
9 9 8 11 11 9 7 8 6 6 3 3 2 1 2 5 7 8 8 6 7 9 9 10 11 12 14 15 17 16 10 12 13 12 13 16 17 17 16 14 13 14 14
10 10 11 12 10 8 9 10 8 6 4 4 4 4 3 2 3 4 4 5 6 6 8 10 10 11 13 15 16 16 12 13 13 12 12 12 17 20 19 17 14 17 14
11 11 12 11 9 9 10 10 8 6 5 6 6 6 5 4 4 3 3 3 4 5 7 8 9 9 10 13 15 17 18 17 14 14 13 13 17 19 19 16 16 18 14
9 8 9 9 9 9 9 9 6 5 6 7 7 6 6 5 4 4 4 3 3 4 6 6 8 9 7 9 15 17 18 19 16 14 17 17 17 16 15 17 18 14 11
7 6 8 9 8 7 7 5 4 5 6 6 6 5 5 6 5 4 3 3 4 4 5 6 8 9 8 8 8 8 10 13 14 14 15 18 17 15 13 12 12 11 11
4 5 6 6 5 5 6 6 5 5 6 5 5 5 5 5 5 5 4 5 5 6 6 7 8 9 10 11 13 11 10 9 10 9 8 8 9 10 10 10 10 10 10
3 4 4 4 3 4 5 5 5 4 4 4 5 4 5 5 5 6 7 8 8 12 13 13 12 10 14 17 18 18 17 17 14 8 9 11 11 12 12 12 11 10 11
Wind_Direction
190 171 164 157 155 155 154 154 147 147 141 137 137 138 148 144 135 160 157 148 140 128 113 101 83 78 78 71 72 77 53 30 5 36 11 0 17 35 36 33 36 33 29
163 160 156 158 163 160 163 163 164 164 165 156 149 143 135 138 143 152 160 170 163 150 133 122 112 100 91 73 61 70 75 32 25 58 65 13 359 5 17 24 33 27 28
179 176 170 170 167 171 174 178 179 176 168 149 122 102 85 78 97 153 187 197 186 174 157 148 137 124 111 102 83 82 94 74 32 41 97 111 265 322 339 11 21 16 24
180 181 175 177 180 182 179 179 179 176 168 157 154 152 158 172 194 187 191 192 189 187 179 168 159 149 136 131 116 99 97 106 64 35 45 81 140 88 339 337 355 6 19
188 188 186 184 184 179 180 181 177 179 174 170 168 160 162 170 160 156 177 189 199 203 197 184 174 167 162 158 140 123 114 114 124 102 74 71 63 75 115 320 333 345 346
195 193 187 176 179 178 179 179 179 190 184 178 175 175 173 168 163 176 187 197 207 218 207 191 185 183 179 179 175 165 152 151 145 148 150 149 143 153 146 241 305 317 315
193 193 188 183 186 186 188 186 187 198 191 185 187 188 182 176 182 186 192 191 196 207 209 191 189 193 198 193 184 183 190 181 179 184 188 194 203 182 172 189 257 291 302
197 197 197 193 194 196 194 192 196 202 193 192 197 191 184 182 190 191 189 195 200 206 200 195 200 204 202 198 189 195 206 198 205 210 201 208 219 201 194 192 194 285 302
200 202 200 199 197 198 200 198 199 203 199 198 194 192 190 190 195 194 192 196 202 206 200 198 202 208 207 203 192 209 220 210 220 226 219 220 227 215 216 210 200 206 269
202 205 205 204 203 204 203 197 199 204 203 197 196 201 198 198 195 187 194 200 204 203 196 201 207 212 213 208 202 218 225 221 231 227 227 233 234 225 216 214 214 214 224
205 206 208 207 203 200 198 198 201 203 201 199 199 199 200 197 191 194 202 202 202 200 203 206 209 214 218 213 210 224 227 230 241 238 232 241 235 233 228 216 215 218 216
210 208 205 199 197 200 201 203 203 206 208 201 196 201 198 191 195 205 208 203 205 207 209 210 213 220 223 218 217 229 230 229 240 244 239 246 242 236 235 226 226 227 221
212 209 204 202 205 206 205 206 206 210 206 193 195 198 199 198 205 210 209 205 209 212 212 211 217 223 224 224 225 228 234 235 238 241 240 246 241 244 240 233 236 238 235
213 211 213 214 212 210 208 207 211 208 197 190 195 203 207 207 210 210 208 209 210 213 215 216 221 225 227 228 230 231 237 242 244 242 241 243 239 241 243 241 239 239 240
222 221 223 224 219 214 211 210 212 203 191 191 201 212 212 207 207 209 212 213 213 219 218 220 226 228 229 232 230 232 237 242 248 249 245 244 242 240 238 238 239 235 240
279 259 244 233 223 218 216 212 211 199 186 198 211 213 204 204 210 215 215 216 220 221 220 223 227 230 234 231 226 225 235 238 243 250 251 249 251 249 245 242 239 230 235
21 355 306 275 260 241 219 214 211 186 188 207 216 212 207 212 216 217 216 221 224 222 224 229 230 235 237 232 232 230 231 237 241 244 249 253 250 241 247 250 250 245 237
30 19 13 10 350 337 246 174 142 163 194 216 227 222 215 224 224 219 225 228 224 222 229 232 232 237 243 235 235 235 236 240 242 241 242 246 251 246 239 247 252 252 249
39 31 27 29 34 32 41 89 92 109 152 227 239 232 222 229 227 228 235 231 224 229 229 231 231 235 244 237 234 233 238 242 246 244 241 240 247 245 233 238 248 256 259
48 44 41 47 43 30 49 69 63 58 33 351 335 312 236 233 239 243 245 238 231 239 240 242 239 238 246 243 234 228 234 243 249 248 243 236 237 241 230 231 238 248 255
51 51 55 52 40 34 57 61 52 40 18 26 38 37 26 307 269 264 256 252 249 253 253 254 253 248 249 253 243 230 229 239 246 249 249 243 230 233 232 226 231 238 242
55 55 59 52 37 37 58 59 43 25 35 47 46 37 28 18 6 339 310 285 268 270 271 271 273 266 257 252 252 239 230 233 242 248 250 246 232 228 229 227 230 233 234
58 56 64 57 40 35 51 57 24 20 42 45 37 24 14 9 1 353 337 329 311 287 285 284 284 285 277 265 255 254 248 240 241 249 247 244 238 232 234 233 228 227 228
57 57 63 58 39 25 35 35 10 23 45 38 21 12 7 355 350 345 331 321 311 303 300 297 293 292 288 282 277 270 267 258 252 254 252 247 245 239 237 237 233 228 224
63 66 72 64 37 19 20 12 11 29 39 27 11 0 354 345 339 334 316 305 284 275 281 285 284 290 292 285 281 282 281 273 266 265 259 249 241 238 235 234 234 229 224
78 73 66 53 20 8 1 355 3 22 31 11 351 341 334 329 326 322 318 299 286 291 286 272 271 277 272 279 283 281 275 271 266 254 252 248 241 238 236 233 232 229 227
Height
1513 1516 1518 1521 1525 1528 1531 1534 1538 1541 1543 1546 1548 1550 1551 1552 1553 1554 1554 1554 1554 1553 1552 1552 1552 1551 1552 1552 1552 1552 1552 1552 1552 1552 1553 1553 1553 1553 1553 1553 1553 1554 1555
1511 1513 1516 1520 1523 1525 1530 1534 1537 1541 1543 1546 1548 1550 1551 1552 1552 1553 1553 1554 1554 1553 1553 1552 1552 1551 1551 1551 1551 1551 1551 1551 1551 1551 1552 1552 1554 1553 1553 1553 1553 1553 1554
1509 1512 1515 1518 1522 1526 1529 1533 1537 1540 1543 1545 1547 1549 1550 1551 1551 1552 1553 1553 1553 1553 1553 1552 1552 1551 1551 1551 1551 1551 1550 1550 1550 1550 1551 1551 1552 1552 1553 1553 1553 1553 1553
1508 1511 1514 1516 1520 1524 1528 1532 1536 1539 1542 1544 1546 1547 1548 1549 1550 1551 1552 1552 1552 1552 1552 1552 1552 1551 1551 1550 1550 1550 1550 1550 1550 1550 1550 1551 1551 1552 1552 1552 1552 1552 1552
1506 1509 1512 1515 1519 1523 1528 1532 1535 1538 1541 1543 1545 1546 1547 1548 1549 1550 1550 1550 1551 1551 1551 1551 1551 1551 1551 1550 1550 1550 1549 1549 1549 1549 1549 1549 1550 1550 1551 1550 1551 1551 1551
1505 1507 1510 1514 1518 1522 1527 1530 1534 1537 1540 1542 1544 1545 1546 1547 1547 1548 1548 1549 1549 1549 1550 1550 1550 1550 1550 1550 1549 1549 1549 1549 1548 1548 1549 1549 1549 1549 1549 1549 1548 1548 1549
1503 1506 1509 1513 1517 1520 1524 1528 1531 1535 1538 1540 1542 1543 1544 1545 1546 1546 1546 1547 1547 1547 1548 1548 1549 1549 1549 1549 1548 1548 1548 1548 1548 1548 1547 1548 1547 1547 1547 1547 1546 1546 1546
1501 1504 1508 1511 1515 1518 1522 1526 1529 1532 1535 1538 1540 1541 1542 1543 1544 1544 1544 1544 1545 1545 1546 1546 1547 1547 1547 1547 1547 1547 1547 1546 1546 1546 1546 1546 1546 1546 1545 1545 1545 1544 1543
1500 1503 1506 1510 1513 1516 1520 1523 1527 1530 1533 1535 1537 1538 1540 1540 1541 1541 1542 1542 1543 1543 1544 1544 1545 1545 1545 1545 1545 1545 1545 1545 1544 1544 1544 1544 1544 1543 1543 1543 1543 1543 1541
1498 1501 1504 1507 1511 1514 1518 1521 1524 1527 1530 1532 1534 1535 1537 1538 1538 1539 1539 1540 1540 1541 1541 1542 1542 1542 1543 1543 1543 1543 1542 1542 1542 1542 1542 1541 1541 1541 1541 1540 1540 1539 1539
1495 1498 1501 1505 1508 1512 1515 1518 1521 1524 1526 1528 1530 1532 1533 1534 1535 1536 1536 1537 1537 1538 1538 1539 1539 1540 1540 1540 1540 1540 1539 1539 1539 1539 1538 1538 1538 1538 1538 1537 1537 1536 1535
1492 1495 1498 1502 1505 1508 1511 1514 1517 1520 1522 1524 1526 1528 1530 1531 1531 1532 1533 1534 1534 1535 1536 1536 1536 1537 1537 1537 1537 1536 1536 1536 1535 1535 1535 1534 1534 1534 1534 1533 1533 1532 1531
1489 1492 1495 1498 1501 1504 1507 1510 1513 1515 1518 1520 1522 1524 1525 1526 1527 1528 1530 1530 1531 1532 1532 1533 1533 1533 1533 1533 1533 1533 1533 1532 1531 1531 1531 1530 1530 1529 1529 1529 1528 1527 1527
1486 1489 1492 1494 1497 1500 1503 1506 1508 1511 1513 1515 1517 1519 1520 1522 1523 1525 1526 1527 1528 1528 1529 1529 1529 1530 1530 1529 1529 1529 1528 1528 1527 1527 1526 1526 1525 1525 1524 1524 1523 1522 1521
1482 1485 1488 1490 1493 1495 1498 1501 1503 1506 1509 1511 1512 1514 1516 1518 1520 1521 1522 1523 1524 1524 1525 1525 1525 1525 1525 1525 1525 1524 1523 1523 1522 1522 1521 1520 1520 1519 1519 1518 1517 1517 1515
1479 1481 1484 1486 1488 1491 1493 1496 1499 1501 1504 1506 1508 1510 1512 1513 1515 1516 1518 1519 1519 1520 1520 1520 1520 1520 1520 1520 1520 1519 1518 1517 1516 1516 1515 1515 1514 1513 1513 1512 1511 1510 1509
1477 1479 1481 1483 1485 1487 1489 1492 1494 1497 1499 1501 1503 1505 1507 1508 1510 1512 1513 1513 1514 1515 1514 1515 1515 1514 1514 1514 1514 1513 1512 1511 1510 1509 1509 1508 1507 1507 1506 1505 1504 1504 1503
1478 1479 1480 1482 1483 1485 1486 1488 1490 1492 1494 1496 1498 1500 1502 1503 1505 1506 1507 1508 1508 1509 1508 1508 1508 1508 1508 1508 1508 1507 1506 1504 1503 1502 1501 1501 1500 1500 1499 1498 1497 1496 1496
1480 1481 1482 1482 1483 1484 1485 1486 1487 1489 1490 1492 1493 1494 1496 1497 1498 1499 1500 1501 1501 1501 1501 1501 1501 1500 1500 1500 1500 1500 1498 1496 1495 1494 1494 1493 1492 1492 1492 1491 1489 1488 1488
1482 1483 1483 1483 1483 1484 1484 1484 1485 1486 1487 1488 1489 1490 1491 1491 1492 1493 1493 1494 1494 1493 1493 1493 1493 1492 1491 1492 1491 1491 1489 1487 1486 1485 1485 1484 1484 1484 1484 1483 1482 1480 1481
1484 1485 1485 1484 1484 1485 1485 1484 1485 1485 1486 1486 1486 1486 1486 1486 1486 1486 1486 1486 1485 1485 1484 1484 1484 1483 1482 1482 1482 1481 1480 1478 1477 1476 1475 1475 1475 1475 1475 1474 1473 1473 1474
1486 1487 1486 1486 1487 1487 1486 1485 1484 1485 1485 1485 1484 1483 1483 1482 1482 1481 1480 1479 1478 1477 1476 1475 1474 1474 1473 1473 1472 1472 1470 1469 1467 1465 1465 1465 1466 1465 1466 1465 1464 1465 1466
1489 1489 1489 1489 1489 1488 1487 1486 1486 1486 1485 1483 1482 1481 1481 1480 1478 1477 1475 1474 1472 1471 1469 1467 1465 1464 1464 1463 1462 1461 1460 1459 1457 1455 1455 1455 1455 1455 1455 1455 1456 1456 1456
1492 1492 1492 1491 1490 1490 1489 1488 1487 1486 1484 1483 1481 1480 1479 1477 1476 1474 1472 1470 1467 1465 1463 1461 1458 1456 1454 1453 1452 1451 1449 1448 1446 1445 1444 1444 1444 1444 1444 1444 1445 1445 1445
1494 1494 1493 1492 1492 1491 1490 1489 1487 1486 1484 1482 1480 1479 1477 1475 1472 1470 1468 1466 1464 1462 1458 1455 1453 1449 1446 1445 1444 1441 1439 1437 1436 1434 1432 1432 1432 1432 1432 1433 1434 1435 1435
1495 1494 1493 1493 1492 1491 1489 1488 1486 1485 1483 1481 1479 1477 1474 1471 1469 1466 1463 1461 1459 1456 1453 1450 1447 1443 1440 1437 1434 1432 1430 1428 1426 1423 1421 1420 1420 1420 1421 1421 1422 1423 1424